Wind_Speed
20 20 19 18 17 15 14 12 11 9 8 7 7 7 7 7 8 8 8 8 8 9 9 9 10 10 11 12 14 16 17 16 16 16 16 17 18 18 19 21 22 23
23 22 21 19 17 16 15 14 12 11 10 10 10 10 10 10 10 11 11 11 11 11 11 11 11 12 13 13 14 16 17 18 18 18 18 18 19 19 20 21 22 23
25 23 21 19 18 17 16 15 14 13 13 13 13 13 12 12 12 13 14 14 14 14 14 13 13 13 14 15 16 17 18 19 20 21 20 20 20 21 21 22 23 24
25 23 22 21 20 19 18 17 16 16 16 16 16 15 15 15 15 15 15 16 16 16 16 16 15 15 15 16 18 18 19 20 22 23 23 23 22 22 23 24 24 25
26 25 24 23 22 21 21 20 19 19 18 18 18 18 18 18 17 17 17 18 19 19 18 18 17 17 16 17 19 20 20 21 22 24 25 25 25 25 25 25 26 27
29 27 26 25 24 23 23 21 21 20 20 20 20 20 21 20 19 19 20 20 21 21 21 20 19 19 19 19 19 20 21 22 23 24 25 26 26 26 26 26 27 28
31 30 28 27 26 25 24 23 22 21 21 22 23 23 23 22 22 22 22 22 22 23 23 22 22 22 21 21 21 22 23 24 25 25 26 27 27 28 28 28 28 30
33 32 30 29 28 27 25 24 23 22 22 23 24 25 25 25 24 24 24 24 24 24 24 24 23 23 24 24 24 24 25 25 26 27 27 28 28 29 30 30 31 32
35 33 32 30 29 28 26 25 24 24 24 25 25 25 26 26 26 26 25 25 25 25 25 25 25 25 25 26 26 26 27 28 28 28 29 29 30 30 31 32 33 34
36 34 32 31 30 28 27 26 25 25 26 27 27 27 27 27 27 27 27 26 26 26 26 26 26 26 26 27 27 28 29 30 31 31 31 31 31 31 32 34 35 37
37 35 33 31 30 28 27 26 26 26 27 27 27 27 28 28 28 28 28 28 27 27 27 27 27 27 27 28 28 29 30 31 32 33 33 33 33 34 35 36 37 39
37 35 32 31 29 28 27 26 26 26 26 26 26 27 27 27 28 28 28 28 28 28 28 27 27 27 27 28 29 30 31 32 34 35 36 36 35 36 38 39 40 41
36 33 31 30 28 27 27 27 27 27 26 26 26 27 27 27 28 28 28 28 28 28 28 28 28 28 29 30 31 31 33 34 35 36 37 38 38 39 40 41 43 44
35 32 30 29 27 27 28 28 28 27 26 26 27 27 28 28 28 28 28 28 27 28 28 29 29 29 30 31 32 34 35 35 36 37 38 40 41 42 43 44 45 46
35 33 32 30 29 29 29 29 28 27 27 27 28 28 29 29 29 28 28 28 29 29 29 30 30 30 31 32 34 35 36 36 37 38 40 42 44 45 45 46 48 50
37 36 34 32 31 31 31 30 29 29 29 29 29 30 30 31 30 30 29 30 30 30 30 31 31 32 32 33 34 35 37 38 40 41 43 44 45 47 48 49 51 53
39 37 36 34 33 33 32 32 32 31 31 32 32 31 31 32 32 32 31 31 32 32 32 32 32 33 33 34 35 37 39 41 42 43 45 46 48 49 51 52 54 56
40 39 37 36 35 34 34 34 34 34 34 34 33 33 33 33 33 33 33 34 34 34 34 34 34 34 35 36 38 39 41 43 45 46 47 49 51 52 54 55 56 56
41 40 39 38 36 36 36 36 37 37 36 35 34 34 34 34 34 34 35 35 35 35 35 36 36 37 38 38 39 41 43 45 48 50 51 52 53 54 55 54 53 52
42 41 40 39 38 37 37 38 39 38 36 35 35 35 36 35 35 35 35 35 36 36 37 38 39 39 40 41 42 43 45 48 50 52 54 54 54 53 52 50 47 46
43 42 41 40 39 39 39 40 39 38 37 37 37 37 37 36 36 36 35 36 37 39 40 40 40 41 43 44 45 46 48 50 52 53 53 52 51 48 46 44 43 42
43 43 42 41 41 41 41 41 40 40 39 40 39 39 38 37 36 37 37 38 39 41 42 42 43 45 46 48 49 49 50 50 49 49 48 47 45 43 42 41 40 40
44 44 43 43 43 43 43 42 42 42 41 41 40 39 38 38 38 38 39 40 41 43 44 46 47 48 50 50 51 50 48 46 43 41 40 40 40 39 39 39 39 38
44 45 45 44 44 44 44 44 43 43 42 41 40 40 40 40 40 40 41 43 44 46 47 48 49 50 50 50 48 45 42 39 37 35 35 35 35 35 36 37 38 38
45 46 46 45 45 45 45 44 44 43 42 42 42 42 41 41 42 43 44 46 47 49 49 50 49 49 46 44 42 39 36 35 33 33 32 31 32 33 34 36 37 38
46 46 46 46 45 45 44 44 44 43 43 43 43 42 43 44 45 46 47 48 49 49 49 48 46 43 40 37 35 34 33 32 32 32 32 32 33 34 36 37 38 40
Wind_Direction
192 192 193 193 192 194 197 202 206 208 210 211 213 218 228 240 251 259 264 270 278 284 292 303 311 316 320 324 326 329 332 334 334 334 335 337 340 342 343 343 344 345
198 198 199 199 198 200 204 208 212 216 221 225 228 230 234 241 251 259 265 268 272 277 284 293 300 305 309 313 318 322 326 329 330 329 329 329 331 334 335 337 339 340
203 205 205 205 206 209 212 215 218 223 228 233 237 239 242 247 252 258 264 268 272 276 282 287 292 297 302 307 313 318 322 325 327 327 327 326 326 327 329 331 333 335
207 209 211 213 214 216 219 222 224 227 233 237 240 244 247 250 254 259 264 269 272 275 280 284 288 292 296 302 309 315 318 322 324 325 325 325 325 324 324 326 327 330
209 212 215 219 221 223 225 227 229 233 237 241 244 247 249 251 254 259 264 269 273 277 279 283 286 289 292 298 305 311 315 318 321 323 323 323 323 322 321 322 323 324
212 215 219 223 227 229 232 233 236 239 243 247 249 251 253 255 257 261 265 269 274 278 281 283 285 287 291 298 303 308 312 315 318 320 320 320 320 319 318 319 319 320
216 219 222 226 230 234 237 240 243 246 250 252 255 257 259 261 263 265 268 271 274 278 281 284 286 288 292 298 304 307 309 312 314 316 317 317 317 316 315 315 315 316
221 222 224 228 232 236 241 244 247 250 253 256 258 260 261 263 265 268 271 274 276 278 281 284 287 289 293 299 303 306 308 309 311 313 314 314 314 313 312 312 312 313
226 227 228 231 235 238 242 245 248 251 254 256 258 260 261 263 265 267 270 273 276 279 281 283 286 289 293 298 301 304 306 308 309 310 310 310 310 310 309 310 311 312
229 230 231 233 236 239 242 245 248 251 254 256 259 261 263 265 267 268 270 272 275 278 280 282 285 288 292 296 300 303 305 306 307 307 307 307 307 307 307 308 309 311
230 231 232 233 235 237 240 244 247 251 253 256 260 263 265 266 268 270 271 272 274 276 278 280 283 287 291 295 298 301 302 304 304 305 305 306 306 306 307 307 308 309
230 231 232 233 234 235 238 242 245 249 253 258 262 265 267 268 270 271 271 273 274 275 277 278 281 285 288 291 294 297 300 301 302 303 304 304 305 305 306 307 307 308
230 231 232 233 233 235 237 240 245 249 255 259 263 266 268 269 270 271 271 271 272 274 275 275 278 282 285 289 292 296 298 300 301 302 303 303 304 304 305 306 307 307
231 231 231 231 232 234 237 242 247 252 256 260 263 266 268 268 269 270 271 270 269 271 272 274 278 282 286 290 294 297 298 299 300 301 301 301 302 303 304 305 306 307
230 230 229 229 231 234 239 244 249 253 257 260 264 267 269 270 271 271 272 273 272 273 275 278 282 286 290 293 295 297 298 298 299 299 299 300 301 303 304 306 306 306
229 229 228 229 231 236 241 246 250 254 258 261 264 267 270 273 274 275 275 277 278 279 280 283 286 289 291 293 294 296 297 297 297 298 298 300 301 303 304 305 305 305
228 230 230 232 234 238 243 247 251 255 258 261 264 267 271 274 276 278 279 280 281 282 284 285 287 289 291 292 294 295 296 296 297 298 299 301 302 302 303 303 303 303
229 231 233 235 237 241 245 249 253 256 259 262 266 270 273 275 277 279 280 281 281 283 285 286 288 289 291 292 294 295 296 297 298 299 300 300 300 300 301 301 301 301
232 234 236 238 241 244 248 251 254 257 261 265 270 273 274 275 276 277 278 279 281 283 285 286 288 290 291 292 294 295 296 297 297 298 298 298 298 298 299 300 300 301
234 237 239 241 244 246 250 253 256 260 265 268 271 272 273 274 275 275 276 278 281 283 284 286 288 290 290 292 293 294 295 295 295 296 296 296 297 298 299 300 301 302
237 239 241 243 246 248 251 254 258 263 266 269 271 271 271 272 273 274 276 279 281 282 284 286 288 289 290 291 292 293 293 293 294 294 295 296 297 299 300 301 302 304
238 241 243 245 248 251 253 256 260 263 266 268 270 270 270 272 274 276 278 279 281 283 284 286 287 288 290 291 291 292 292 292 293 294 295 296 298 300 301 302 304 306
242 243 245 247 249 252 255 257 260 263 265 267 268 269 270 272 274 276 278 279 281 283 284 286 287 288 289 290 290 291 291 292 293 293 294 296 299 301 302 304 305 307
245 246 247 248 250 252 255 258 260 262 264 266 267 269 271 273 274 276 278 279 281 282 284 285 287 288 288 289 290 291 292 292 293 292 292 294 297 299 301 304 307 310
247 248 249 250 251 253 255 257 260 261 263 265 267 269 271 273 274 276 277 279 281 283 284 285 286 286 287 288 290 292 294 294 294 293 293 294 295 297 300 304 309 313
247 249 250 251 252 254 255 257 259 261 263 265 267 269 271 273 274 276 278 280 281 283 283 284 285 285 287 289 291 293 294 295 295 295 296 298 299 301 304 307 311 315
Height
11008 11009 11010 11011 11013 11014 11015 11016 11017 11018 11019 11020 11020 11021 11021 11021 11022 11022 11022 11022 11022 11021 11021 11021 11021 11020 11020 11019 11018 11017 11017 11016 11015 11015 11014 11013 11012 11011 11010 11009 11007 11006
11005 11006 11008 11010 11011 11013 11014 11015 11016 11017 11018 11018 11019 11019 11020 11020 11020 11020 11020 11020 11020 11020 11020 11020 11020 11019 11019 11018 11018 11017 11016 11015 11014 11013 11013 11012 11011 11010 11009 11008 11007 11005
11003 11005 11007 11009 11010 11011 11013 11014 11015 11016 11016 11017 11017 11018 11018 11019 11019 11018 11018 11018 11018 11018 11018 11018 11018 11018 11017 11017 11016 11016 11015 11014 11013 11012 11011 11011 11010 11009 11008 11007 11006 11004
11002 11003 11005 11007 11008 11009 11011 11012 11014 11014 11015 11015 11016 11016 11017 11017 11017 11017 11016 11016 11016 11016 11017 11016 11016 11016 11016 11015 11015 11014 11014 11013 11012 11011 11010 11009 11009 11008 11007 11005 11004 11003
11000 11001 11002 11004 11005 11007 11009 11010 11012 11012 11013 11014 11014 11015 11015 11015 11015 11015 11015 11015 11014 11014 11015 11015 11015 11014 11015 11014 11014 11013 11012 11012 11011 11010 11008 11007 11007 11006 11005 11004 11002 11001
10998 10999 11000 11002 11003 11005 11007 11008 11010 11011 11012 11012 11013 11013 11013 11013 11014 11014 11014 11013 11013 11013 11013 11013 11013 11012 11013 11013 11012 11012 11011 11010 11009 11008 11007 11006 11005 11004 11003 11002 11000 10998
10995 10996 10998 10999 11001 11003 11005 11006 11008 11009 11010 11010 11011 11011 11011 11012 11012 11012 11012 11012 11012 11011 11011 11011 11011 11011 11011 11011 11010 11010 11009 11008 11007 11006 11005 11004 11003 11001 11000 10999 10998 10996
10993 10994 10995 10997 10998 11000 11002 11004 11005 11006 11007 11008 11008 11009 11009 11010 11010 11010 11010 11010 11009 11009 11009 11009 11009 11009 11008 11008 11008 11007 11006 11006 11005 11004 11003 11002 11000 10999 10997 10995 10994 10993
10990 10991 10993 10995 10996 10998 11000 11001 11003 11003 11004 11005 11006 11006 11007 11007 11007 11008 11008 11008 11007 11007 11007 11007 11006 11006 11006 11005 11005 11004 11003 11002 11002 11001 11001 11000 10998 10996 10994 10993 10991 10990
10986 10988 10990 10992 10994 10996 10997 10998 10999 11000 11001 11002 11003 11003 11004 11004 11005 11005 11005 11006 11005 11005 11004 11004 11004 11004 11003 11003 11002 11001 11000 10999 10998 10998 10997 10996 10995 10993 10992 10990 10988 10987
10982 10984 10986 10988 10991 10993 10994 10995 10996 10997 10998 10999 11000 11001 11001 11001 11002 11002 11002 11003 11003 11003 11002 11002 11001 11001 11001 11000 10999 10998 10997 10996 10995 10994 10993 10993 10991 10990 10988 10987 10986 10984
10979 10981 10983 10985 10988 10990 10991 10992 10993 10994 10995 10997 10997 10997 10998 10998 10999 10999 10999 11000 11000 11000 11000 10999 10999 10998 10998 10997 10996 10996 10995 10994 10992 10991 10989 10988 10987 10986 10985 10983 10982 10981
10976 10978 10981 10983 10985 10987 10988 10989 10990 10991 10993 10994 10994 10994 10995 10995 10996 10996 10996 10997 10997 10997 10996 10997 10996 10996 10995 10994 10994 10993 10992 10991 10989 10988 10986 10984 10983 10982 10981 10979 10978 10976
10973 10975 10978 10980 10982 10983 10984 10985 10987 10988 10990 10990 10991 10991 10991 10992 10992 10993 10993 10994 10994 10994 10993 10993 10993 10993 10993 10992 10991 10990 10989 10988 10987 10985 10982 10980 10979 10978 10977 10976 10974 10972
10970 10972 10974 10976 10978 10979 10980 10982 10983 10985 10986 10987 10987 10988 10988 10988 10989 10990 10990 10990 10990 10991 10991 10991 10990 10990 10990 10989 10988 10987 10985 10984 10983 10981 10979 10977 10975 10974 10973 10971 10969 10967
10965 10968 10970 10973 10974 10976 10977 10978 10980 10981 10982 10983 10984 10985 10985 10985 10985 10986 10987 10987 10987 10987 10987 10988 10987 10987 10987 10986 10985 10983 10982 10980 10979 10977 10975 10973 10972 10970 10968 10966 10964 10962
10961 10964 10967 10969 10971 10973 10974 10975 10977 10978 10979 10980 10981 10982 10982 10982 10982 10983 10983 10984 10983 10983 10983 10984 10984 10984 10983 10982 10981 10980 10978 10976 10974 10973 10971 10970 10968 10966 10964 10962 10959 10957
10958 10961 10964 10966 10968 10969 10971 10972 10973 10974 10975 10976 10978 10979 10980 10980 10979 10979 10979 10979 10979 10979 10979 10979 10979 10979 10979 10978 10977 10976 10974 10972 10969 10968 10967 10965 10964 10962 10960 10958 10955 10952
10955 10958 10961 10963 10965 10967 10968 10969 10970 10971 10972 10974 10975 10976 10976 10976 10976 10976 10975 10975 10975 10975 10974 10974 10975 10975 10975 10974 10973 10972 10970 10968 10965 10963 10962 10960 10959 10957 10956 10954 10951 10949
10952 10955 10957 10960 10962 10964 10965 10966 10966 10968 10970 10971 10972 10972 10972 10973 10973 10972 10972 10971 10971 10971 10970 10970 10970 10970 10970 10970 10969 10969 10967 10964 10961 10959 10957 10955 10954 10953 10952 10949 10947 10945
10948 10951 10954 10956 10958 10960 10961 10962 10963 10965 10966 10967 10968 10968 10968 10969 10969 10968 10968 10968 10967 10966 10966 10966 10966 10965 10965 10965 10965 10964 10963 10960 10958 10954 10952 10950 10949 10948 10947 10945 10943 10942
10945 10947 10950 10952 10954 10955 10956 10958 10959 10961 10962 10963 10963 10964 10964 10965 10965 10965 10964 10964 10963 10962 10961 10961 10961 10961 10960 10960 10960 10959 10958 10957 10955 10952 10948 10945 10944 10943 10942 10940 10939 10939
10941 10943 10946 10948 10950 10951 10952 10954 10955 10957 10958 10958 10959 10959 10960 10960 10960 10960 10960 10959 10958 10958 10957 10956 10956 10956 10955 10954 10954 10954 10953 10953 10951 10949 10946 10943 10941 10939 10937 10935 10935 10934
10937 10939 10941 10944 10945 10946 10947 10949 10950 10952 10953 10953 10954 10954 10955 10956 10956 10955 10955 10954 10954 10953 10952 10952 10951 10950 10949 10948 10948 10948 10948 10948 10947 10945 10943 10941 10939 10937 10934 10932 10931 10930
10932 10934 10935 10938 10940 10942 10943 10944 10945 10947 10948 10948 10949 10949 10949 10950 10950 10950 10949 10949 10948 10947 10947 10946 10946 10945 10944 10944 10943 10943 10943 10942 10941 10940 10939 10938 10936 10934 10932 10930 10928 10926
10927 10928 10930 10933 10935 10936 10938 10939 10940 10941 10942 10943 10943 10943 10944 10944 10944 10944 10944 10943 10942 10942 10941 10940 10940 10939 10939 10939 10939 10939 10938 10937 10936 10934 10933 10933 10931 10929 10928 10926 10924 10923